Lake Hartwell Weather Center

Moon Phase Calendar



Lake Hartwell Water Level
Online Cameras

 


      

Current Conditions in Centerville
11/25/2020 12:53:43 AM

49°F
Feels Like 42
Clouds
Humidity
61%
Pressure
30.33"
Wind
6.9 mph (ENE)
Dew Point
36°F
UV Index
3/10 (Moderate)
Visibility
6 mi

Hourly Forecast

Date & Time Wed, Nov 25
12:00 AM
Wed, Nov 25
1:00 AM
Wed, Nov 25
2:00 AM
Wed, Nov 25
3:00 AM
Wed, Nov 25
4:00 AM
Wed, Nov 25
5:00 AM
Wed, Nov 25
6:00 AM
Wed, Nov 25
7:00 AM
Wed, Nov 25
8:00 AM
Wed, Nov 25
9:00 AM
Wed, Nov 25
10:00 AM
Wed, Nov 25
11:00 AM
Wed, Nov 25
12:00 PM
Wed, Nov 25
1:00 PM
Wed, Nov 25
2:00 PM
Wed, Nov 25
3:00 PM
Wed, Nov 25
4:00 PM
Wed, Nov 25
5:00 PM
Wed, Nov 25
6:00 PM
Wed, Nov 25
7:00 PM
Wed, Nov 25
8:00 PM
Wed, Nov 25
9:00 PM
Wed, Nov 25
10:00 PM
Wed, Nov 25
11:00 PM
Thu, Nov 26
12:00 AM
Thu, Nov 26
1:00 AM
Thu, Nov 26
2:00 AM
Thu, Nov 26
3:00 AM
Thu, Nov 26
4:00 AM
Thu, Nov 26
5:00 AM
Thu, Nov 26
6:00 AM
Thu, Nov 26
7:00 AM
Thu, Nov 26
8:00 AM
Thu, Nov 26
9:00 AM
Thu, Nov 26
10:00 AM
Thu, Nov 26
11:00 AM
Thu, Nov 26
12:00 PM
Thu, Nov 26
1:00 PM
Thu, Nov 26
2:00 PM
Thu, Nov 26
3:00 PM
Thu, Nov 26
4:00 PM
Thu, Nov 26
5:00 PM
Thu, Nov 26
6:00 PM
Thu, Nov 26
7:00 PM
Thu, Nov 26
8:00 PM
Thu, Nov 26
9:00 PM
Thu, Nov 26
10:00 PM
Thu, Nov 26
11:00 PM
Condition
Clouds

Clouds

Clouds

Clouds

Clouds

Clouds

Clouds

Clouds

Clouds

Clouds

Clouds

Clouds

Clouds

Clouds

Clouds

Clouds

Clouds

Clouds

Clouds

Clouds

Clouds

Clouds

Rain

Rain

Rain

Rain

Rain

Rain

Rain

Rain

Rain

Rain

Rain

Rain

Clouds

Clouds

Clouds

Clouds

Clouds

Clouds

Clouds

Clouds

Clouds

Clear

Clear

Clear

Clear

Clear
Temperature 49°F48°F47°F47°F47°F47°F47°F47°F47°F47°F50°F51°F53°F56°F57°F59°F58°F57°F55°F56°F56°F57°F57°F57°F57°F57°F56°F57°F58°F59°F59°F60°F61°F63°F64°F66°F68°F70°F70°F71°F70°F66°F63°F62°F61°F60°F59°F58°F
Feels Like 43°F42°F41°F41°F41°F41°F41°F41°F41°F42°F45°F48°F50°F55°F56°F58°F55°F54°F53°F54°F55°F57°F57°F57°F58°F57°F57°F58°F58°F59°F60°F61°F61°F63°F64°F65°F67°F68°F69°F69°F69°F66°F63°F62°F61°F60°F59°F57°F
Cloudiness 90%95%98%99%100%100%100%100%100%100%100%100%100%100%100%94%94%91%93%94%100%100%100%100%100%100%100%100%100%100%100%100%94%83%88%91%91%86%47%29%20%15%11%10%0%0%0%0%
Visibility 6 mi6 mi6 mi6 mi6 mi6 mi6 mi6 mi6 mi6 mi6 mi6 mi6 mi6 mi6 mi6 mi6 mi6 mi6 mi6 mi6 mi6 mi6 mi6 mi6 mi6 mi6 mi6 mi6 mi6 mi6 mi6 mi6 mi6 mi6 mi6 mi6 mi6 mi6 mi6 mi6 mi6 mi6 mi6 mi6 mi6 mi6 mi6 mi
Precipitation 0%0%0%0%0%0%0%0%8%6%5%3%0%0%0%0%0%0%2%10%20%32%52%59%75%88%97%100%100%100%100%100%61%70%66%64%54%57%36%32%28%28%28%25%0%0%0%0%
Humidity 61%60%59%59%59%61%64%69%71%73%73%74%74%73%74%73%78%83%86%85%85%85%87%89%92%94%95%95%96%97%98%98%98%94%91%87%82%76%71%69%71%82%91%93%93%93%92%90%
Dew Point 36°F35°F34°F33°F33°F34°F36°F37°F38°F39°F42°F43°F46°F48°F49°F51°F51°F52°F52°F52°F52°F52°F53°F54°F55°F55°F55°F56°F57°F58°F59°F59°F60°F62°F62°F62°F62°F62°F61°F60°F60°F60°F60°F60°F59°F58°F57°F55°F
Pressure 30.33"30.33"30.33"30.3"30.3"30.3"30.3"30.3"30.3"30.27"30.27"30.27"30.24"30.21"30.18"30.15"30.15"30.15"30.15"30.15"30.12"30.12"30.09"30.09"30.09"30.09"30.09"30.09"30.06"30.06"30.09"30.09"30.09"30.12"30.12"30.12"30.09"30.09"30.06"30.06"30.03"30.06"30.06"30.09"30.09"30.12"30.12"30.09"
Wind Speed 5.1 mph5 mph4.8 mph5.4 mph5.4 mph5.8 mph5.4 mph5.2 mph5.4 mph5.1 mph4.6 mph3.8 mph3.5 mph1 mph1.3 mph2.8 mph5.2 mph5.5 mph4.5 mph4.6 mph3.5 mph1.8 mph0.5 mph1.6 mph1.4 mph1.7 mph1.8 mph1.8 mph4.2 mph4.2 mph3 mph3.5 mph5.1 mph7.4 mph7.6 mph8 mph8.4 mph9.2 mph9 mph8.6 mph7.3 mph5.9 mph6 mph5.6 mph5.1 mph4.1 mph4.1 mph3.8 mph
Wind
Direction
52°
NE
65°
ENE
59°
ENE
48°
NE
46°
NE
56°
NE
62°
ENE
59°
ENE
57°
ENE
62°
ENE
66°
ENE
82°
E
84°
E
101°
E
102°
ESE
51°
NE
34°
NE
44°
NE
37°
NE
42°
NE
75°
ENE
90°
E
127°
SE
166°
SSE
245°
WSW
291°
WNW
301°
WNW
207°
SSW
194°
SSW
218°
SW
223°
SW
216°
SW
202°
SSW
231°
SW
233°
SW
236°
SW
242°
WSW
246°
WSW
243°
WSW
235°
SW
227°
SW
207°
SSW
209°
SSW
212°
SSW
224°
SW
243°
WSW
266°
W
291°
WNW

Daily Forecast

Date High Low Precip. Humidity
Today
Nov 25

Rain
58 °F
47 °F
52%
73%
Thursday
Nov 26

Rain
70 °F
57 °F
100%
76%
Friday
Nov 27

Clear
71 °F
53 °F
0%
43%
Saturday
Nov 28

Rain
66 °F
56 °F
60%
74%
Sunday
Nov 29

Rain
56 °F
52 °F
100%
74%
Monday
Nov 30

Rain
60 °F
30 °F
100%
67%
Tuesday
Dec 1

Clouds
40 °F
28 °F
1%
65%
Wednesday
Dec 2

Clear
49 °F
30 °F
0%
49%
Thursday
Dec 3

Clouds
51 °F
34 °F
0%
48%
Friday
Dec 4

Clear
49 °F
30 °F
0%
48%
Saturday
Dec 5

Clouds
50 °F
30 °F
0%
47%
Sunday
Dec 6

Clear
55 °F
30 °F
0%
37%
Monday
Dec 7

Clear
54 °F
34 °F
0%
41%
Tuesday
Dec 8

Clouds
54 °F
41 °F
0%
50%
Wednesday
Dec 9

Clear
57 °F
36 °F
0%
50%
Thursday
Dec 10

Clear
57 °F
38 °F
0%
52%


Temperature 8-14 Day Outlook



Precipitation 8-14 Day Outlook




Quick Links
Lake Hartwell News
Lake Hartwell Photos
Lake Hartwell Videos




About Us
Contact Us
Site Map
Search Site
Advertise With Us
   
www.MyLakeHartwell.com
THE LAKE HARTWELL WEBSITE

Copyright 2020, Lakes Online
Privacy    |    Legal